Regional Weather Roundup
Issued by NWS

Home | Current Version | Previous Version | Graphics & Text | Print | Product List | Glossary On
Versions: 1 2 3 4 5 6 7 8 9 10 11 12 13 14 15 16 17 18 19 20 21 22 23 24 25 26 27 28 29 30 31 32 33 34 35 36 37 38 39 40 41 42 43 44 45 46 47 48 49 50
000
ASUS43 KDTX 301610
RWRMI
MICHIGAN HOURLY REGIONAL WEATHER ROUNDUP
NATIONAL WEATHER SERVICE DETROIT/PONTIAC MI
1100 AM EST FRI JAN 30 2015

NOTE: "FAIR" INDICATES FEW OR NO CLOUDS BELOW 12,000 FEET WITH NO
SIGNIFICANT WEATHER AND/OR OBSTRUCTION TO VISIBILITY.

MIZ047>049-052>055-059>063-066>070-074>076-081>083-301700-
SOUTHEAST LOWER MICHIGAN

CITY           SKY/WX    TMP DP  RH WIND       PRES   REMARKS
ADRIAN         PTSUNNY   19   7  59 N16       30.45R WCI   4
ALMA           CLOUDY    17   7  63 NW9       30.48R WCI   6
ANN ARBOR      SUNNY     17   4  56 N18G26    30.43R WCI   1
BAD AXE        CLOUDY    10   4  80 NW16G25   30.42R HAZE    WCI  -8
CARO           SUNNY     10   0  62 N10       30.46R WCI  -3
DETROIT CITY   MOSUNNY   17   2  51 N12G24    30.43R WCI   4
DETROIT        MOSUNNY   21   9  59 N14       30.44R WCI   8
FLINT          MOSUNNY   15   2  56 N17       30.46R WCI  -1
GROSSE ILE     MOSUNNY   18   3  53 NW21      30.42R WCI   1
HILLSDALE      CLOUDY    19   8  60 N12G20    30.41R WCI   7
HOWELL         MOSUNNY   15   4  60 N13G22    30.43R WCI   1

CITY           SKY/WX    TMP DP  RH WIND       PRES   REMARKS
JACKSON        CLOUDY    18   6  59 N17G25    30.44R WCI   3
LAMBERTVILLE   SUNNY     21   9  58 N12G18    30.45R WCI   9
LANSING        CLOUDY    18   6  59 N15G21    30.47R WCI   4
LAPEER         FAIR      11  -1  57 N16       30.43R WCI  -5
MASON          CLOUDY    16   6  65 N10       30.45R WCI   3
MONROE         SUNNY     18   7  62 NW15G21   30.43R WCI   3
MT. CLEMENS    MOSUNNY   14   1  57 NW18      30.39R WCI  -3
PONTIAC        MOSUNNY   13   1  59 NW14G24   30.41R WCI  -2
PORT HOPE        N/A     15   7  70 NW12G21   30.40R WCI   2
PORT HURON     PTSUNNY   14   5  67 NW14G22   30.39R WCI  -1
TRI CITIES     SUNNY     15   2  56 N15       30.47R WCI   0
TROY           SUNNY     17   1  51 NW15      30.44R WCI   2
SAGINAW HB     SUNNY     14   3  62 NW13G22   30.47R WCI   0
$$
MIZ043>046-050>051-056>058-064>065-071>073-077>080-301700-
SOUTHWEST LOWER MICHIGAN

CITY           SKY/WX    TMP DP  RH WIND       PRES   REMARKS
BATTLE CREEK   CLOUDY    23   8  52 NE10      30.45R WCI  12
BENTON HARBOR  CLOUDY    23  14  68 N6        30.49R WCI  16
BIG RAPIDS     CLOUDY    18   9  70 N9        30.44R WCI   6
COLDWATER      CLOUDY    21   8  58 N13       30.44S WCI   8
FREMONT        CLOUDY    19   8  62 N7        30.47S WCI  10
HOLLAND        CLOUDY    23   9  55 N9        30.49R WCI  13
GRAND RAPIDS   CLOUDY    20   7  57 NW10      30.47R WCI   9
IONIA          CLOUDY    20   9  64 N8        30.46R WCI  10
KALAMAZOO      CLOUDY    20   8  60 N13       30.47R WCI   7
LUDINGTON      CLOUDY    21   9  59 N12       30.49R WCI   9
MARSHALL       CLOUDY    19   7  59 N3        30.44R
MOUNT PLEASANT CLOUDY    17   6  62 N7        30.47R WCI   7
MUSKEGON       FLURRIES  22   9  57 N9        30.49S WCI  12
SOUTH HAVEN    CLOUDY    23  13  64 NE9       30.49R WCI  13
$$
MIZ016>042-301700-
NORTHERN LOWER MICHIGAN

CITY           SKY/WX    TMP DP  RH WIND       PRES   REMARKS
ALPENA         CLOUDY     7   0  73 N13       30.47R WCI  -9
BEAVER ISLAND  FLURRIES  11   6  80 CALM      30.48S
BELLAIRE       PTSUNNY   13   2  63 NE5       30.49R WCI   5
CADILLAC       CLOUDY    13   6  74 NE5       30.40R WCI   5
CHARLEVOIX     CLOUDY    10   3  75 E5        30.50S WCI   1
FRANKFORT      CLOUDY    19  10  68 N6        30.48R WCI  10
GAYLORD        CLOUDY     6  -1  73 N5        30.41R WCI  -3
GRAYLING       CLOUDY    10   1  67 N9        30.43S WCI  -2
HARBOR SPRINGS CLOUDY     7  -2  67 CALM      30.48R
HOUGHTON LAKE  PTSUNNY   12   1  61 N9        30.43R WCI   0
MANISTEE       CLOUDY    19   7  58 N7        30.49R WCI  10
OSCODA         SUNNY     10  -1  62 NW15      30.45R WCI  -7
PELLSTON       CLOUDY     5  -3  69 CALM      30.49R
ROGERS CITY    CLOUDY     7   3  85 N9        30.49R WCI  -7
TRAVERSE CITY  LGT SNOW  15   8  73 NE8       30.46R WCI   4
$$
MIZ007>008-015-301700-
EASTERN UPPER MICHIGAN

CITY           SKY/WX    TMP DP  RH WIND       PRES   REMARKS
KINROSS        SUNNY      5  -6  61 CALM      30.46S
MACKINAC ISLAN CLOUDY     4  -5  67 E3        30.47R
NEWBERRY       CLOUDY     5   1  83 CALM      30.45R FOG
S. S. MARIE    SUNNY      1  -9  62 SW3       30.46S
MUNISING         N/A     17   4  56 NW14      30.47R WCI   3
$$
MIZ004>006-011>014-085-301700-
CENTRAL UPPER MICHIGAN

CITY           SKY/WX    TMP DP  RH WIND       PRES   REMARKS
MANISTIQUE     LGT SNOW  14  10  85 W10       30.47R WCI   1
ESCANABA       CLOUDY    12   1  62 W12       30.50S WCI  -2
MENOMINEE      SUNNY     14   1  57 N9        30.52S WCI   2
SAWYER-GWINN   CLOUDY    10   0  61 NW10      30.43R WCI  -3
$$
MIZ001>003-009>011-084-301700-
WESTERN UPPER MICHIGAN

CITY           SKY/WX    TMP DP  RH WIND       PRES   REMARKS
IRON MOUNTAIN  CLOUDY    11   1  64 N7        30.46S WCI   0
HOUGHTON       LGT SNOW  10   5  80 CALM      30.44R
COPPER HARBOR    N/A     12   2  64 NW8G17    30.48R WCI   0
IRONWOOD       CLOUDY    10   5  79 W7        30.42S WCI   0
$$

ABBREVIATIONS USED IN REMARKS
   TC - TEMPERATURE IN CELSIUS
  WCI - WIND CHILL INDEX
   HX - HEAT INDEX
  VSB - VISIBILITY



USA.gov is the U.S. government's official web portal to all federal, state and local government web resources and services.